Tracking 19224 objects as of 22-Jul-2018
HD Live streaming from Space Station
objects crossing your sky now

FENGYUN 1C DEB

Track FENGYUN 1C DEB now!
10-day predictions


NORAD ID: 30099
Int'l Code: 1999-025RC
Perigee: 776.6 km
Apogee: 870.3 km
Inclination: 98.7 °
Period: 101.2 minutes
Semi major axis: 7194 km
RCS: 0.039 m2 (small)
Launch date: May 10, 1999
Source: People's Republic of China (PRC)
Launch site: Taiyaun Space Center, China (TSC)

Note: This is SATELLITE DEBRIS
aabbcc
Your satellite tracking list
Your tracking list is empty




NASA's NSSDC Master Catalog

Two Line Element Set (TLE):
1 30099U 99025RC  18202.54360039 +.00000064 +00000-0 +46940-4 0  9996
2 30099 098.7170 286.6945 0065113 168.5330 319.1470 14.22684201597575
Source of the keplerian elements: AFSPC